RH
48 51 50 47 42 39 40 44 46 54 62 53 43 39 43 55 59 61 57 53 53 50 53 54 45 38 31 33 35 29 35 46 49 51 52 50 49 50 44 36 30 26 26 24 21 17 11 7 7 13 19 18 16 11 12 18 11 6 6 7 7 7 7 8 13 16 18 19 30 35 24 28 41 43 41 42 38 30 30 34 37 35 30 28 30 31 33 34 35 36 35 35 36 35 34 32 30
44 44 42 40 37 36 37 40 42 44 54 60 56 46 41 48 54 58 60 58 57 51 50 50 47 41 33 34 36 32 34 39 38 38 42 46 52 56 49 38 32 29 25 23 21 16 10 6 7 13 19 18 15 11 12 17 11 6 6 7 7 7 7 8 12 14 17 19 30 36 22 27 42 44 40 40 42 35 30 32 35 35 34 32 31 33 34 35 36 37 39 40 40 39 37 36 34
40 40 39 38 37 37 38 38 41 42 44 53 62 61 49 45 50 56 63 64 62 58 50 42 42 40 38 43 40 40 46 47 44 43 49 52 52 51 49 42 35 31 25 23 20 13 8 5 7 13 18 17 15 10 11 17 12 6 6 7 7 7 7 8 11 13 16 18 30 35 19 24 41 43 37 38 44 41 34 32 33 34 33 34 33 33 34 35 38 39 42 45 44 41 39 37 37
38 38 39 38 39 38 39 39 39 41 42 44 53 64 59 49 48 54 57 58 60 60 51 41 39 39 45 53 48 51 55 49 44 46 53 51 46 46 45 40 32 29 24 22 19 10 5 5 7 13 18 17 14 10 11 17 13 7 6 7 7 8 7 8 11 13 15 17 30 33 19 21 34 39 34 33 42 44 40 35 33 33 32 33 34 34 36 39 43 45 46 47 46 43 41 39 38
37 37 38 38 39 39 39 39 40 39 40 45 50 56 59 55 49 47 47 49 56 58 51 46 47 47 48 49 47 51 50 43 41 42 47 48 45 42 39 34 28 25 23 21 15 6 4 5 8 14 18 16 13 9 11 16 13 7 6 7 7 8 7 9 10 13 14 17 32 31 19 19 24 31 30 28 37 45 45 41 36 34 34 35 36 38 40 45 48 50 51 49 46 44 42 41 39
36 36 37 37 37 39 39 38 40 38 38 42 45 47 52 56 50 44 44 47 55 55 49 52 58 57 48 45 48 51 45 39 40 43 46 48 46 43 39 32 26 23 22 18 10 4 4 5 9 14 17 15 11 8 11 16 13 7 6 7 8 8 8 9 10 13 13 18 33 28 19 18 17 22 26 24 29 41 47 45 43 38 37 38 39 43 45 49 52 53 54 52 48 44 41 39 38
36 37 35 37 36 36 38 38 38 38 38 36 37 39 43 48 49 46 44 45 51 51 50 53 57 61 57 52 53 51 49 46 47 50 48 46 47 45 39 29 24 22 20 14 6 3 4 5 10 14 16 13 9 8 13 16 12 7 6 7 8 8 9 9 10 13 12 23 33 26 20 18 15 16 20 22 22 33 46 48 48 46 42 41 42 45 48 51 52 52 53 54 50 44 40 36 34
36 37 36 36 36 35 35 37 38 38 37 36 35 36 37 40 45 48 43 41 43 46 52 52 51 58 57 53 52 49 51 53 50 49 45 41 42 41 35 27 22 22 18 9 4 4 4 7 11 14 14 11 7 9 15 16 11 7 7 8 8 8 9 9 11 12 14 29 33 24 21 17 14 13 15 21 20 24 41 50 50 50 49 47 47 48 49 48 49 51 52 52 48 42 37 32 28
36 37 36 36 36 36 35 35 36 36 36 35 35 35 36 35 39 43 42 45 45 43 46 44 42 48 49 48 50 49 49 52 49 45 41 40 41 39 33 26 23 22 14 5 4 4 5 9 12 13 11 9 6 10 16 15 10 7 7 8 8 9 10 10 12 12 20 34 31 23 21 15 13 12 12 17 19 19 30 48 52 52 53 52 52 50 48 45 46 49 51 49 44 39 33 27 23
37 36 36 37 36 37 36 36 35 35 35 34 34 35 36 35 37 40 41 46 45 42 40 37 36 39 44 45 45 45 44 46 44 40 39 40 42 38 31 28 25 18 8 4 4 4 8 11 11 10 8 7 5 13 18 13 9 7 8 8 8 9 10 13 13 14 28 37 28 22 18 13 13 12 11 12 16 15 21 42 52 53 55 55 54 51 47 43 45 49 49 45 40 34 28 24 22
36 37 37 37 37 38 37 37 36 35 34 35 37 35 35 36 36 40 42 39 35 36 35 36 34 34 37 37 38 38 37 40 38 36 38 38 38 34 30 30 24 13 6 4 5 7 10 10 9 8 6 5 7 16 18 12 8 7 8 8 8 10 13 16 15 22 36 35 25 20 15 13 13 11 11 10 11 12 17 35 48 52 54 56 54 52 47 42 45 48 47 42 37 31 27 26 25
38 38 39 38 38 38 38 38 36 36 35 39 42 34 30 33 35 42 45 34 28 31 32 33 30 30 34 32 33 32 32 36 34 35 37 34 33 32 29 27 19 8 5 4 7 9 9 9 8 7 5 5 10 18 17 11 8 7 8 8 9 12 18 20 20 33 41 31 22 17 14 14 13 11 10 9 8 9 17 32 44 48 51 54 53 52 46 40 43 46 45 41 36 31 30 29 28
42 41 41 40 39 38 37 37 38 36 34 37 39 31 26 28 32 36 33 24 20 22 24 26 23 26 32 30 31 30 30 31 31 35 34 30 29 28 25 22 14 6 4 5 8 9 8 8 7 6 5 8 15 18 15 10 8 8 8 8 11 16 24 25 29 41 39 26 19 15 14 15 13 11 8 7 7 9 19 31 40 44 46 50 51 50 42 38 42 44 44 41 38 35 34 33 31
42 42 42 41 39 40 36 34 37 38 34 34 33 27 27 30 31 26 15 11 13 13 14 18 18 23 28 27 26 25 26 26 27 31 28 27 26 22 21 18 10 4 5 7 8 8 7 7 7 7 9 14 18 18 14 11 9 8 8 9 12 22 31 32 38 44 34 22 16 14 15 15 13 10 7 6 5 10 20 31 39 39 38 40 43 43 37 39 42 44 45 42 40 38 37 37 34
36 39 39 37 36 37 33 27 28 32 33 34 30 25 27 29 27 20 10 7 8 8 9 12 13 16 20 21 21 20 21 22 23 23 21 22 21 18 17 12 6 4 5 7 8 7 6 7 8 12 17 20 19 17 14 11 9 8 9 9 16 31 37 37 42 42 28 18 15 15 16 15 13 9 7 6 6 10 19 28 33 31 28 29 34 38 38 41 45 45 46 45 43 40 40 39 35
27 32 32 28 26 27 26 21 16 20 26 29 25 19 23 26 20 14 8 5 6 7 7 8 8 8 11 12 13 13 15 22 22 17 16 15 16 18 14 7 5 5 6 7 7 6 6 6 10 16 21 22 19 17 14 11 9 8 8 10 24 39 40 39 43 37 23 15 15 15 16 15 12 9 7 7 7 10 16 21 23 23 23 27 35 40 42 45 47 47 48 47 45 42 40 37 35
18 22 22 17 16 16 15 14 12 14 23 28 21 15 20 20 13 8 5 4 6 7 7 6 5 4 5 9 13 11 13 23 21 17 20 19 19 17 10 6 5 5 6 7 7 6 6 8 13 18 23 23 20 16 13 10 9 9 8 17 35 42 39 40 41 32 18 14 15 16 16 15 13 9 8 10 11 11 15 20 25 29 29 33 42 46 47 49 49 49 50 49 46 43 39 35 34
16 15 15 12 11 11 10 11 11 13 23 28 23 20 21 18 8 5 5 5 6 8 8 6 6 5 3 9 16 16 20 26 23 23 25 23 21 14 8 6 5 5 6 6 8 7 7 11 17 22 26 25 21 16 12 10 10 8 12 29 41 39 37 40 38 26 16 15 15 16 16 16 14 9 9 14 16 18 24 33 40 41 38 43 49 51 51 50 50 50 51 49 46 41 35 32 31
16 15 14 13 11 11 10 11 11 16 25 29 27 23 20 14 5 5 6 5 6 9 9 5 5 5 3 8 13 13 15 17 23 30 27 22 19 12 7 5 5 6 6 7 7 8 10 12 18 25 28 27 24 18 12 11 10 10 21 36 38 34 36 37 33 23 15 15 15 16 17 17 17 15 17 24 28 31 38 45 51 49 47 51 54 57 57 53 50 51 53 48 42 36 30 28 29
13 15 13 12 13 15 13 16 24 28 32 34 32 22 10 6 5 6 6 5 7 9 9 5 5 6 4 8 10 11 10 8 21 31 24 19 16 11 7 5 5 6 6 8 6 8 14 14 17 27 30 30 26 19 14 12 10 14 27 34 30 30 34 35 31 22 15 15 16 16 17 21 25 24 25 29 30 34 43 49 53 54 54 55 56 59 62 59 55 54 51 40 32 26 22 21 21
9 10 10 9 13 16 14 21 32 35 33 30 25 15 5 5 6 7 7 8 8 8 11 6 4 5 7 10 8 10 9 8 17 23 22 18 12 10 9 5 4 6 6 6 5 6 11 12 19 28 30 29 27 23 18 14 13 19 26 25 25 28 31 33 29 21 16 15 16 16 20 27 31 30 25 23 28 40 46 44 46 53 58 61 62 64 65 64 58 49 39 28 21 16 13 15 16
6 6 6 8 12 16 17 25 35 38 34 25 16 10 7 9 8 8 9 11 13 15 16 8 4 11 14 13 10 8 8 14 20 19 21 17 11 13 10 5 4 6 6 5 6 6 6 10 19 27 28 28 28 25 21 17 18 20 22 22 25 28 30 32 27 21 17 16 16 18 28 33 30 29 25 19 26 38 36 33 41 47 55 60 59 62 63 61 53 38 27 21 15 11 10 11 13
5 5 5 7 8 13 20 35 49 44 29 17 13 11 11 13 9 10 11 13 19 22 25 16 10 24 26 14 14 16 11 17 22 20 23 17 14 17 9 5 5 5 6 6 6 7 8 12 20 26 26 28 30 28 25 21 20 19 21 23 25 27 30 30 27 22 19 17 16 21 32 34 28 25 23 17 17 24 20 23 36 41 46 52 54 58 57 51 45 32 23 21 15 12 14 18 23
6 5 6 5 6 10 15 36 49 31 11 6 10 13 14 12 9 12 11 15 19 15 24 24 14 24 32 24 22 24 19 20 21 24 31 22 18 18 7 5 6 5 7 6 7 7 7 14 23 28 28 30 31 30 27 24 21 19 20 23 25 26 29 29 26 23 20 18 18 25 31 30 29 24 20 17 15 20 19 19 26 32 33 36 45 49 43 36 34 31 25 22 19 17 17 23 29
7 5 6 6 5 8 8 18 23 9 2 4 6 9 10 8 8 12 9 13 20 19 25 27 18 15 25 33 28 24 25 26 25 28 32 23 23 22 8 6 6 6 8 6 7 6 8 18 26 28 29 31 31 30 29 26 22 21 22 22 22 24 26 27 26 23 21 21 21 26 30 29 28 22 17 17 15 16 19 24 27 27 23 23 33 32 29 28 24 25 24 19 20 22 17 15 17
7 6 6 7 5 7 7 7 6 2 3 3 3 4 4 4 5 9 7 9 18 31 40 38 30 20 25 38 31 28 31 29 27 27 26 22 30 27 9 8 9 6 8 7 8 8 10 17 22 24 27 32 33 32 31 26 23 22 22 20 21 22 24 25 24 24 22 23 23 25 29 29 27 22 17 15 14 11 14 25 25 16 13 19 28 27 29 31 24 20 18 16 17 18 17 13 12
8 7 6 7 6 6 7 5 3 4 3 3 3 2 2 3 3 6 5 6 8 22 42 49 45 33 33 40 35 30 27 31 31 25 27 33 42 33 11 9 10 8 8 8 10 10 11 14 16 19 25 33 35 35 31 26 23 21 21 19 19 19 21 23 23 23 23 24 25 26 28 28 28 25 19 15 14 13 14 22 24 17 14 18 27 31 31 29 27 23 14 13 13 12 15 13 11
9 8 7 7 8 6 5 5 4 4 3 3 3 2 3 2 3 4 2 4 4 7 23 46 60 50 38 35 35 28 25 39 38 33 47 49 43 29 12 11 10 9 9 9 12 11 11 11 14 21 28 36 40 39 33 27 24 20 18 16 16 18 20 22 22 22 23 25 28 26 25 26 29 28 22 17 15 15 14 19 26 26 18 20 30 34 31 24 20 17 11 10 10 9 10 9 9
10 9 8 6 7 7 6 6 5 5 4 3 3 2 3 3 3 2 2 4 6 8 8 28 63 74 61 42 32 30 34 47 47 58 69 47 31 22 11 12 11 10 10 12 16 13 12 13 21 29 34 41 41 38 34 31 31 26 21 16 17 22 24 23 22 24 26 29 30 26 23 26 29 31 26 20 16 15 14 15 21 22 15 20 29 27 26 24 17 13 10 8 6 7 7 7 7
13 10 8 7 8 7 6 6 6 6 5 4 4 3 3 3 3 1 2 4 8 16 14 20 43 65 75 63 45 40 37 41 49 65 64 39 30 26 19 19 16 13 11 13 19 17 14 18 29 34 38 43 41 41 42 44 44 33 24 25 30 33 29 25 24 27 29 29 28 24 22 25 28 32 30 24 19 16 14 14 15 16 13 16 22 19 17 20 20 18 15 10 7 9 10 8 6
15 12 9 8 8 8 7 7 7 6 5 5 4 4 5 3 3 2 4 14 21 23 24 27 28 39 66 72 57 46 37 41 51 50 43 36 30 27 29 30 26 23 17 15 22 24 18 20 35 49 56 55 54 57 55 61 65 51 37 35 42 42 31 26 27 29 29 28 26 22 20 24 27 32 33 28 22 17 15 15 14 15 15 14 16 16 13 13 14 15 15 15 11 9 10 9 6
15 13 11 8 8 9 8 7 7 7 6 6 5 4 5 3 3 3 5 21 33 30 25 23 26 42 67 73 57 45 42 51 55 40 34 39 40 40 35 30 32 34 32 28 27 32 30 27 35 49 60 61 65 67 60 63 68 67 67 61 56 51 38 33 34 32 29 27 24 21 22 25 29 34 36 31 25 20 17 16 15 15 16 15 14 14 13 12 11 11 11 12 10 8 9 8 8
16 14 12 9 9 9 9 9 7 8 7 6 6 5 4 4 2 4 7 17 30 35 29 19 29 56 74 73 63 58 59 60 57 43 33 39 51 53 41 38 45 45 46 48 45 43 41 36 34 45 61 64 67 71 66 63 60 63 77 85 80 69 54 45 41 34 30 29 26 25 28 30 34 36 37 34 27 24 20 17 17 15 15 15 14 14 13 13 13 12 11 11 11 10 10 9 9
14 14 14 11 10 10 11 16 11 7 9 7 5 6 9 9 3 5 13 19 30 38 35 24 29 52 66 63 59 61 63 64 67 56 39 40 50 53 50 54 62 63 65 69 65 56 48 44 42 56 74 71 67 71 68 67 66 63 67 81 87 82 74 61 46 39 36 35 32 32 35 36 38 38 36 33 28 26 23 19 18 16 16 15 14 14 13 14 13 13 13 12 12 11 11 11 10
13 14 15 12 13 11 12 29 27 7 7 10 4 6 13 15 8 9 15 21 34 40 32 26 24 35 54 60 59 61 63 66 69 59 42 39 45 51 57 62 68 74 78 80 77 66 59 56 47 55 73 73 69 68 64 66 68 64 64 73 77 79 80 66 50 48 47 45 42 41 42 41 40 37 33 31 28 26 23 21 19 17 17 15 14 14 13 14 13 13 13 13 13 12 12 11 11
16 15 16 14 14 12 10 33 38 12 7 10 5 9 11 8 9 19 26 27 37 42 31 30 31 32 47 65 69 70 74 69 60 54 51 53 52 48 53 64 69 69 74 82 80 72 69 64 51 51 67 74 71 65 64 68 68 68 75 81 81 83 79 63 56 58 55 51 47 45 44 42 39 34 30 28 26 25 22 21 19 18 17 15 14 13 13 13 13 13 13 13 13 13 13 12 12
18 18 17 16 16 15 11 30 42 18 7 9 10 15 11 5 7 18 32 38 41 42 36 38 41 36 45 65 73 76 79 67 56 60 63 65 63 55 53 60 64 66 76 84 79 73 69 62 53 56 68 75 73 68 68 72 74 77 79 82 87 88 76 64 63 63 57 52 47 44 42 41 38 31 27 26 24 23 22 20 19 17 16 15 14 13 13 13 13 13 12 13 13 12 13 13 12
19 21 19 18 18 20 16 28 44 25 8 16 16 12 11 8 7 14 28 38 40 39 38 39 41 39 44 60 73 81 80 63 56 60 56 52 54 55 58 59 59 64 72 79 81 77 70 65 62 64 73 79 77 72 69 73 79 80 77 79 86 82 71 66 64 59 56 52 48 46 44 42 37 31 27 26 24 22 20 19 17 16 15 14 14 14 14 14 13 14 13 13 13 13 14 13 13
20 28 31 22 16 25 28 30 46 34 16 26 20 8 13 10 9 26 39 39 37 39 40 37 41 43 44 60 75 80 76 62 52 52 48 45 43 44 53 59 58 55 58 71 81 80 74 76 76 73 79 84 80 72 68 73 78 82 82 79 82 77 66 64 60 53 51 49 48 47 45 43 38 33 29 26 24 23 21 19 17 16 16 15 14 14 14 15 15 15 15 15 15 15 15 15 15
19 30 44 37 18 22 32 32 47 43 23 29 27 12 13 11 15 37 49 49 46 44 39 34 39 42 46 66 80 77 71 60 49 45 41 38 37 40 48 53 48 48 64 78 83 83 79 82 85 83 83 82 77 72 74 81 82 86 85 77 79 76 62 59 58 52 49 47 46 44 42 41 37 33 31 29 27 26 25 22 19 18 17 16 16 17 17 17 18 18 19 20 20 21 20 20 19
20 24 42 52 28 20 37 35 39 44 30 34 41 29 18 19 31 38 41 48 49 45 40 34 38 41 48 62 67 68 70 59 46 40 34 30 33 39 47 48 39 48 81 93 88 86 81 82 89 87 82 78 77 77 82 88 88 87 84 78 80 72 60 61 59 53 49 45 43 43 42 40 38 36 33 32 30 28 26 23 21 20 19 20 20 21 22 24 25 26 28 29 30 31 31 30 29
24 18 34 60 39 24 46 46 42 47 39 40 41 30 21 26 39 40 37 40 41 44 42 36 38 38 41 45 45 57 65 55 46 40 32 29 30 34 43 45 35 46 84 99 91 86 79 79 88 89 83 80 82 84 85 88 88 84 78 77 79 66 58 60 57 51 48 45 46 45 43 41 39 37 34 33 30 28 26 24 24 23 24 26 27 28 30 32 34 35 36 38 38 38 38 38 37
26 17 27 53 40 27 44 52 55 51 43 48 40 22 16 19 29 33 32 33 36 42 43 42 43 34 31 36 40 49 53 46 42 38 32 29 28 30 35 40 36 38 65 85 85 85 83 81 84 84 84 84 87 91 89 85 84 80 73 72 70 58 51 54 52 51 49 47 47 43 41 39 37 35 33 31 29 28 28 27 28 29 30 32 33 35 37 38 39 40 41 41 41 40 40 40 41
27 22 22 32 31 33 42 45 51 47 44 57 50 34 30 23 23 30 33 34 35 42 51 51 42 26 24 33 34 37 44 44 38 33 32 29 26 27 27 32 38 39 52 70 75 77 82 86 89 86 85 87 90 93 89 82 79 75 67 61 56 51 52 54 52 51 48 45 42 39 38 37 35 34 33 31 31 31 31 32 32 34 36 37 39 40 41 42 42 42 42 41 40 40 40 39 39
28 27 23 26 35 44 50 49 50 46 45 57 57 46 39 31 23 24 33 35 33 45 56 48 35 26 24 29 34 43 50 44 35 32 31 28 25 25 23 25 40 52 63 72 72 66 66 76 90 92 90 91 90 87 81 75 71 63 55 51 50 52 56 54 50 47 44 41 39 39 39 38 37 36 35 35 35 35 35 36 37 39 41 42 43 43 44 44 43 43 41 40 39 39 38 37 36
31 31 25 26 39 52 63 66 64 57 45 49 60 46 30 37 36 26 29 29 27 40 50 43 33 28 29 27 33 57 64 43 33 34 29 28 27 23 22 28 45 63 73 75 68 58 55 68 85 87 86 87 85 79 70 62 56 48 46 47 50 53 52 50 47 45 44 43 43 43 43 42 41 40 39 39 39 40 40 41 43 45 46 46 46 46 46 44 43 41 40 39 38 38 37 37 37
31 46 45 32 38 58 72 71 74 80 57 38 47 36 20 37 45 32 28 26 30 43 48 46 36 28 35 34 33 63 74 46 32 34 28 28 28 23 23 34 53 66 72 77 68 54 53 64 73 73 74 76 71 64 57 51 48 47 49 51 52 52 50 49 50 49 50 50 48 47 46 45 45 44 44 44 45 45 46 47 48 49 50 50 49 48 46 43 39 37 38 39 40 40 40 40 41
31 57 64 41 37 57 69 70 77 80 54 30 38 37 25 34 41 33 29 30 40 49 44 43 44 38 38 37 44 70 71 42 31 33 29 29 27 24 25 37 59 67 68 75 68 52 50 55 57 60 66 69 63 58 55 53 53 54 55 56 55 55 55 55 55 54 53 50 48 48 48 49 50 50 50 51 51 51 52 54 54 55 54 53 51 49 45 40 38 39 41 43 44 44 43 43 44
28 55 68 52 50 55 52 59 67 57 38 33 47 56 42 33 35 30 28 35 44 48 45 46 50 46 38 36 48 62 52 33 31 31 30 30 28 27 24 29 51 63 69 77 67 48 46 54 55 56 59 61 61 58 57 58 58 58 58 58 57 57 56 55 53 51 49 48 49 50 51 54 55 56 57 57 57 57 59 59 59 59 57 54 52 48 43 39 40 43 47 49 50 49 48 46 46
26 48 68 64 62 53 33 37 48 41 36 42 61 79 61 41 41 32 29 38 40 42 49 51 48 47 50 47 43 43 37 31 30 30 31 30 28 29 26 26 42 63 79 83 66 46 49 58 58 56 56 58 60 57 54 56 57 57 57 56 55 53 52 51 50 50 51 51 52 53 55 58 59 61 62 62 63 63 62 62 61 60 56 53 50 45 41 41 44 49 52 54 54 52 51 49 47
28 43 69 75 74 65 36 24 32 32 36 47 69 85 67 54 57 45 40 42 32 33 41 43 46 54 61 55 39 33 33 29 28 30 32 30 29 29 27 30 49 76 91 82 60 50 57 63 60 57 56 57 59 57 54 55 55 53 53 52 52 52 51 52 53 54 55 55 55 56 58 60 62 64 64 64 64 63 63 60 57 56 53 50 46 43 42 45 50 54 56 57 58 55 53 50 47
34 50 76 77 76 82 55 30 37 44 48 60 76 80 64 61 60 44 45 47 37 38 36 33 46 55 56 50 38 34 32 29 30 32 31 30 30 30 27 33 60 90 95 76 57 53 59 62 62 62 61 60 61 59 55 53 50 49 48 49 51 53 54 56 56 57 57 56 55 55 57 59 60 61 61 60 59 56 53 49 47 47 46 45 43 42 44 50 55 58 60 62 60 56 53 49 45
45 61 78 69 64 81 74 57 62 64 61 66 72 67 53 54 55 38 35 45 50 52 43 38 47 49 48 46 36 31 30 30 32 31 31 31 29 30 32 45 72 93 88 68 56 55 57 58 59 61 62 61 58 53 48 46 45 46 47 49 52 55 57 58 57 56 54 51 50 51 52 53 52 50 48 45 41 37 34 33 36 39 40 41 42 44 50 56 59 60 63 65 61 56 51 47 46
58 60 65 72 75 79 79 80 77 60 54 62 60 50 40 42 50 40 29 36 48 51 45 44 45 43 46 47 37 31 31 33 33 30 31 32 28 33 49 65 79 84 74 63 58 56 55 53 53 55 55 52 48 44 41 40 39 39 40 43 47 51 53 53 52 50 48 47 48 46 45 42 39 36 34 31 28 27 27 29 33 38 41 43 45 50 57 59 61 64 66 65 60 54 50 48 47
69 63 55 72 81 74 73 78 69 46 42 53 53 52 50 40 36 36 36 42 45 43 43 46 49 45 42 39 33 30 33 34 32 30 30 30 27 40 63 75 77 73 64 59 58 55 53 52 51 50 47 43 40 37 36 35 34 34 36 40 44 47 48 46 45 43 41 40 38 34 32 30 30 29 29 30 30 31 32 33 36 41 44 48 53 58 60 61 64 68 67 63 58 53 52 51 47
64 68 56 60 69 74 73 68 65 55 45 45 49 57 58 40 27 27 34 44 41 33 35 45 53 51 39 29 24 24 29 30 29 29 28 29 30 41 59 68 70 68 59 53 55 54 52 51 49 46 41 39 38 34 32 32 31 31 34 37 39 38 36 33 32 30 29 28 26 26 27 28 29 30 31 33 35 37 38 39 42 46 51 57 61 62 62 65 69 70 66 62 58 56 54 50 44
59 70 62 51 55 72 77 69 71 72 59 48 43 51 59 47 31 24 26 35 32 24 32 41 44 48 42 28 20 20 26 28 28 28 26 31 40 46 53 58 60 55 48 49 54 53 49 46 44 40 38 37 34 30 28 27 26 26 26 27 27 25 24 24 24 24 24 24 24 25 27 28 29 31 32 35 39 43 45 47 51 56 61 65 65 65 68 71 72 69 65 62 60 58 53 46 41
56 67 66 53 49 64 76 74 71 70 68 60 45 51 70 61 36 25 27 34 29 21 31 35 31 41 44 29 18 20 24 25 28 28 25 33 45 49 48 48 45 40 41 47 50 47 44 41 38 36 35 34 30 26 25 24 23 23 23 23 23 22 23 23 24 24 24 25 26 26 27 28 28 30 34 40 45 49 53 57 62 64 66 67 68 71 74 74 71 68 66 65 62 55 49 43 41
Wind_Speed
25 25 25 23 23 19 20 22 16 17 23 32 36 32 30 21 17 16 9 9 6 16 30 36 31 26 23 20 25 25 21 20 20 22 23 24 24 23 22 22 23 23 25 28 29 28 27 23 21 20 20 20 19 19 17 15 13 12 11 10 10 11 11 12 13 15 17 18 19 19 20 20 18 18 19 17 14 12 10 9 8 7 7 6 7 8 9 10 11 12 13 13 13 13 13 13 12
27 26 27 25 24 22 22 24 19 18 19 25 34 37 34 28 23 17 9 10 6 21 38 40 31 24 22 21 26 28 24 22 23 24 24 24 22 24 24 22 23 24 25 28 29 29 27 24 21 20 20 19 19 19 17 14 13 12 11 10 10 11 11 12 13 15 16 18 19 19 20 20 17 17 19 18 15 13 11 9 8 8 7 7 8 9 10 11 13 14 14 14 14 13 13 13 13
29 28 29 27 26 25 23 25 23 21 21 20 25 34 33 29 27 18 13 13 13 27 37 33 24 20 20 23 28 27 25 24 25 25 24 23 22 24 23 23 25 25 26 28 30 30 27 23 20 20 19 19 18 18 17 15 13 12 11 10 10 11 11 11 12 14 16 17 19 18 19 19 17 16 18 18 15 13 12 10 9 8 8 8 9 10 11 12 13 14 15 15 14 14 14 14 14
31 30 30 29 28 27 25 27 27 24 24 20 19 24 28 31 30 23 20 22 28 35 34 27 21 22 23 26 29 25 25 26 27 27 26 26 26 26 25 26 27 26 27 29 30 30 27 22 20 19 19 19 18 18 17 15 13 12 11 10 10 11 11 11 12 13 15 17 18 17 18 18 16 16 17 18 16 14 12 11 10 9 9 9 10 10 11 12 13 14 15 15 14 14 14 15 15
32 32 31 30 29 29 29 30 28 26 25 20 18 16 19 24 21 19 20 26 35 37 35 26 21 26 29 32 31 29 29 27 27 29 29 29 29 27 27 27 27 28 28 30 31 29 25 21 20 19 19 19 18 18 17 15 13 12 11 10 10 11 11 11 12 13 15 16 17 16 16 16 16 16 16 17 16 14 13 12 11 10 9 9 10 11 12 13 13 14 14 14 14 15 15 16 16
34 33 32 32 31 31 32 31 30 28 26 23 23 20 18 19 21 23 17 19 32 37 35 22 20 29 34 36 32 32 34 30 28 29 30 29 29 27 27 28 28 28 29 31 31 27 23 20 19 18 18 18 18 18 17 15 13 12 10 10 10 10 11 11 12 13 14 16 16 15 15 16 16 16 16 16 16 14 13 12 11 11 10 10 11 11 12 13 13 13 13 13 14 15 16 16 16
35 34 34 34 32 33 34 33 32 30 28 27 27 24 23 19 22 25 13 24 38 37 36 29 26 31 37 39 34 34 35 32 29 28 28 27 28 28 28 28 28 28 29 31 29 25 22 20 18 18 18 18 18 17 16 15 13 12 10 9 10 10 11 11 12 13 14 15 15 14 15 16 17 17 16 15 15 14 12 12 11 11 10 10 11 11 12 13 13 13 13 13 14 15 15 15 15
36 35 35 36 34 35 36 35 34 33 30 28 28 26 25 23 22 21 13 30 44 35 33 35 29 29 36 39 36 36 36 34 31 29 28 28 29 29 29 28 29 29 29 30 28 24 21 19 18 18 18 18 18 17 16 14 12 11 10 9 10 10 11 11 12 13 13 14 13 13 15 16 17 17 16 15 15 14 12 11 11 10 10 10 10 11 12 12 13 12 12 12 13 14 14 14 14
38 37 36 37 37 37 39 37 35 35 32 30 29 26 26 27 25 25 24 34 45 34 25 30 31 32 35 36 36 35 35 34 31 31 30 30 30 30 31 30 29 29 29 29 26 23 20 18 18 18 18 18 17 16 15 13 12 11 9 9 9 10 10 11 12 12 12 12 12 13 15 16 17 17 16 15 14 14 12 11 10 10 10 10 10 10 12 12 12 12 12 12 13 14 14 13 13
39 39 37 38 39 39 40 39 37 35 33 31 29 28 25 24 25 28 32 39 44 33 22 28 36 38 35 35 38 35 35 35 32 32 32 31 31 32 33 31 30 30 29 27 24 22 19 18 18 18 18 17 16 15 14 12 11 10 10 9 10 10 10 11 11 11 11 11 11 13 15 16 17 16 16 15 15 14 13 11 10 10 9 9 9 10 11 12 12 11 12 13 13 13 13 12 12
40 40 38 38 41 41 40 39 37 36 35 30 29 28 20 20 27 33 39 46 42 29 24 28 38 41 37 38 38 37 37 35 34 33 32 32 33 35 34 33 32 30 28 25 23 20 18 18 18 18 18 16 15 14 13 12 11 11 10 9 10 10 10 11 10 10 10 10 11 13 15 16 17 16 16 16 15 15 13 12 11 10 9 9 9 10 11 12 11 11 12 12 13 12 12 12 12
42 41 40 41 43 42 41 41 39 37 35 31 29 26 15 19 37 44 47 48 36 28 30 30 38 43 40 41 39 39 38 36 36 34 34 34 35 35 34 34 32 29 26 23 21 19 18 18 18 18 16 14 14 13 13 13 12 11 10 9 9 10 10 10 9 9 9 9 11 13 15 16 16 17 17 16 16 14 13 12 11 10 8 8 9 11 12 11 11 11 11 12 12 12 12 13 13
45 43 42 44 45 44 42 42 42 39 38 35 29 25 18 23 41 47 44 40 30 29 34 34 38 43 43 43 42 41 40 39 37 35 35 35 36 36 34 34 31 28 25 22 20 18 18 17 17 16 14 13 13 14 13 13 12 10 9 9 9 10 10 9 9 9 8 9 11 13 14 15 16 17 17 16 16 14 13 12 12 11 9 8 9 11 12 11 11 11 11 11 11 12 13 13 14
48 45 44 46 46 46 45 44 43 40 41 34 26 28 27 32 45 47 37 27 25 27 33 38 39 43 44 44 45 44 41 41 39 37 37 36 37 36 34 32 29 27 23 21 19 18 17 17 16 14 13 13 13 14 14 13 11 10 9 9 10 10 9 8 9 8 8 9 11 13 13 15 15 16 16 16 15 14 13 12 12 12 11 10 10 11 11 10 10 10 10 10 11 12 13 14 14
49 48 47 49 49 48 47 45 43 41 40 29 27 37 35 36 45 47 38 24 22 25 33 39 39 41 43 44 47 45 42 42 40 39 39 37 37 35 31 29 27 25 22 20 18 17 17 15 14 13 13 13 14 14 14 13 11 10 9 9 10 9 9 8 9 8 8 10 11 12 13 14 14 15 15 15 14 13 13 12 12 12 12 12 10 10 10 10 9 9 9 10 11 12 13 14 15
49 49 49 50 50 49 48 45 42 40 34 27 33 42 39 37 41 45 38 25 21 24 32 36 35 40 42 43 44 42 40 38 36 36 36 34 32 29 27 26 25 24 21 19 18 17 16 14 14 13 13 13 14 14 14 13 11 10 10 10 10 9 9 9 9 8 9 10 11 12 12 13 14 14 14 13 13 12 12 12 12 12 13 12 11 9 8 9 9 8 8 9 11 12 14 15 16
47 48 49 49 49 48 46 41 41 34 24 24 34 42 41 39 41 42 33 25 21 23 32 33 34 39 36 35 35 36 35 32 31 30 30 28 26 24 25 25 24 23 20 18 17 16 15 14 14 13 13 14 14 14 14 13 11 11 10 10 10 10 10 10 9 9 10 11 11 12 12 13 14 14 13 12 11 11 11 11 12 12 12 12 11 10 9 8 8 8 8 9 11 12 14 16 17
46 46 47 46 46 45 40 37 37 29 21 23 32 42 42 38 43 41 28 23 21 24 33 31 32 36 31 29 30 31 29 26 26 24 24 23 23 23 24 25 23 22 20 18 17 15 14 13 13 13 13 14 15 15 14 13 12 11 11 11 11 11 11 10 11 11 11 11 12 12 12 13 14 14 13 11 10 9 10 11 12 12 11 11 11 12 11 9 8 7 8 10 12 13 15 16 17
44 45 45 44 43 40 36 33 29 20 17 22 34 47 45 40 40 35 28 26 22 24 34 31 31 35 31 29 31 30 27 24 22 21 21 22 24 24 24 24 22 22 20 18 17 15 14 13 13 14 14 14 16 16 15 14 12 12 11 12 12 12 11 12 12 12 12 12 12 12 12 13 14 13 11 10 10 9 9 10 12 12 11 11 12 13 13 11 9 8 9 11 13 14 15 16 16
42 43 43 43 41 37 35 27 18 17 22 27 38 52 47 36 31 30 31 30 26 25 32 34 32 34 32 31 32 30 26 24 22 22 23 24 24 24 24 24 23 21 19 18 17 15 13 13 13 14 14 15 17 16 15 14 13 13 13 13 13 13 12 13 13 13 13 13 12 12 14 14 13 12 11 10 10 10 10 10 11 11 12 13 13 13 14 13 12 11 11 13 14 15 15 16 16
40 40 39 40 38 38 37 25 19 27 39 43 46 55 43 28 29 32 32 29 28 28 31 37 35 34 35 34 33 30 26 25 25 26 27 27 26 25 25 24 22 20 19 18 17 15 13 13 14 14 15 16 17 17 16 15 14 14 14 14 14 14 13 14 14 14 13 13 13 13 14 14 13 12 11 11 11 10 10 10 11 11 12 13 13 13 12 12 13 14 14 14 14 15 15 16 16
37 35 35 35 34 38 32 20 23 36 48 50 49 53 39 29 34 33 31 28 28 29 33 40 37 34 36 35 33 31 29 27 28 30 30 30 27 25 25 23 21 20 19 18 16 14 14 14 15 16 16 17 17 17 16 16 16 16 16 15 15 14 14 14 14 14 14 13 13 14 13 13 13 12 11 11 11 10 10 10 9 10 11 12 13 12 11 11 12 14 15 15 15 15 15 15 15
36 33 31 32 32 36 29 22 31 46 52 51 47 48 40 36 35 31 32 29 29 33 36 42 39 32 34 35 34 32 31 30 31 32 31 30 27 25 23 21 21 21 19 16 15 15 15 16 16 17 18 18 17 17 17 17 17 17 17 16 15 15 15 15 15 15 15 14 14 14 13 13 13 12 11 11 11 10 10 9 9 9 10 12 13 12 12 12 13 15 16 15 15 16 15 15 15
36 32 30 30 30 33 33 32 40 49 45 37 36 43 44 38 34 33 35 32 35 39 38 43 40 32 32 34 34 34 34 34 33 32 29 28 27 25 22 21 21 20 18 16 16 17 17 18 18 18 19 18 18 18 18 18 17 17 17 17 17 16 16 16 16 16 16 15 14 14 13 13 12 12 11 11 11 11 10 9 9 9 9 10 11 12 12 13 14 14 15 15 16 17 17 17 16
36 32 29 30 31 31 34 38 44 44 32 23 28 39 41 36 33 36 38 38 40 38 38 44 40 35 34 34 36 36 35 34 33 31 29 28 27 24 22 22 21 19 18 17 17 18 19 19 19 19 20 19 20 20 19 18 18 18 18 18 18 18 18 18 17 17 17 16 14 13 13 12 12 13 12 11 10 11 11 10 9 9 10 10 10 11 11 12 13 14 15 15 16 17 17 18 18
37 32 30 31 32 30 32 39 41 35 24 22 29 33 32 31 33 36 41 43 40 37 38 42 41 37 35 37 39 36 34 33 32 32 31 32 30 25 22 21 20 19 17 16 18 20 21 21 21 21 22 21 21 20 19 19 19 19 19 20 20 20 19 18 18 18 17 17 15 13 13 12 12 13 13 13 12 12 12 12 11 11 11 11 10 10 11 11 13 14 15 15 16 17 17 18 19
37 33 32 33 33 32 35 38 34 29 24 24 28 27 24 27 31 36 41 42 42 42 40 39 41 38 38 41 40 37 34 32 32 33 34 34 30 24 20 19 18 17 15 17 20 22 22 21 23 24 24 23 22 20 20 20 20 20 21 21 21 21 20 19 19 18 17 17 15 13 12 12 12 13 13 14 14 14 14 13 12 12 12 12 11 11 10 11 12 13 15 15 15 16 17 17 18
38 35 36 35 34 35 37 35 30 28 27 25 25 24 23 26 31 35 37 37 41 45 41 37 39 40 42 41 38 35 33 32 32 32 31 28 23 19 18 18 17 16 17 19 22 23 22 23 25 26 25 24 22 22 22 22 22 22 21 21 22 22 21 20 19 18 18 17 16 15 13 12 12 13 13 14 14 15 15 15 14 14 14 13 12 11 11 12 12 13 14 15 15 16 16 17 18
39 39 40 37 36 37 36 33 31 30 28 26 25 24 24 27 32 32 31 32 37 41 40 38 37 35 37 38 36 33 30 29 29 28 27 23 22 21 19 18 18 19 20 22 24 23 23 26 27 27 26 25 24 24 25 25 24 22 22 23 23 23 21 20 19 18 17 16 16 16 14 13 13 14 14 14 14 14 15 15 15 16 17 16 14 14 14 15 15 15 15 16 17 17 17 18 19
42 42 41 38 37 38 37 34 31 30 29 26 25 24 25 29 32 29 27 28 31 34 36 38 36 33 34 36 32 28 28 28 27 29 29 26 24 22 19 19 21 22 22 25 27 24 25 29 29 29 28 27 26 26 26 26 24 23 23 24 24 23 22 20 19 18 17 16 16 15 14 14 14 15 15 14 14 14 14 15 15 16 17 18 18 18 18 18 18 18 18 18 18 19 19 19 20
44 43 42 40 39 38 38 34 31 31 30 28 27 25 26 31 32 28 26 27 29 32 34 36 35 34 34 34 30 29 30 29 29 31 28 24 22 21 21 23 24 24 25 29 29 27 29 31 29 27 25 24 25 24 24 22 21 21 24 25 24 23 22 20 19 18 17 16 16 15 15 15 15 16 16 16 15 15 15 15 15 16 17 18 19 19 20 20 20 20 20 20 20 20 20 20 20
46 45 43 42 40 39 38 34 32 32 30 28 28 26 29 33 31 27 28 30 31 31 33 34 33 32 31 30 28 29 29 27 28 29 26 24 23 23 25 28 27 23 24 29 31 30 31 30 27 25 24 24 25 25 24 22 20 19 20 21 21 22 21 20 19 18 17 16 16 15 15 15 16 16 17 17 16 16 16 17 17 17 18 18 20 20 21 21 21 21 21 22 22 22 22 21 21
49 47 45 43 41 39 36 35 34 31 30 30 29 29 32 33 31 29 29 32 32 29 31 32 30 27 27 27 27 27 27 26 29 30 26 24 24 23 26 29 28 24 25 29 31 30 30 29 27 26 26 26 27 26 25 25 23 21 18 17 16 17 18 18 18 16 15 15 14 14 15 15 16 16 17 17 17 18 18 19 19 19 20 20 21 21 22 22 22 23 22 22 22 23 23 22 22
51 49 45 43 41 37 32 32 35 33 30 31 31 29 32 33 32 30 29 31 30 27 28 29 27 26 26 29 30 30 30 28 28 27 20 18 20 23 25 26 26 28 29 31 31 29 28 28 27 27 28 26 27 27 25 24 23 21 21 20 17 14 13 14 14 13 13 14 14 14 15 15 16 17 17 17 18 19 20 21 21 21 22 22 22 22 22 23 24 24 24 24 24 24 24 24 23
52 50 46 43 40 36 30 25 32 35 30 31 32 28 31 34 32 30 29 29 28 27 28 27 27 27 28 31 33 32 31 29 27 21 14 15 19 22 24 24 25 29 31 31 31 29 28 28 27 28 29 27 27 27 26 25 23 21 22 22 18 15 12 11 11 12 12 12 13 13 14 15 16 16 17 17 18 19 21 21 22 23 23 23 23 24 24 24 25 25 25 25 25 25 25 25 24
50 48 44 41 38 36 29 22 28 35 30 30 31 30 35 36 29 27 28 28 28 27 26 26 27 27 29 31 32 31 29 24 19 15 14 17 21 23 24 24 25 28 30 30 31 29 28 27 26 29 30 27 27 26 25 25 24 22 21 19 15 12 11 10 9 9 10 11 12 13 13 15 16 16 17 18 19 20 21 22 23 24 25 25 25 25 25 25 26 26 26 26 27 27 27 27 26
47 45 43 40 37 36 29 23 29 36 30 26 28 34 38 34 28 28 28 28 27 26 25 26 26 26 28 30 30 28 26 21 16 15 17 19 21 24 25 26 25 27 27 28 29 29 28 27 25 28 30 28 27 27 25 24 22 21 19 18 14 10 8 8 7 7 9 11 12 13 15 16 16 17 18 18 19 20 21 22 23 24 25 25 26 26 26 26 27 27 28 28 29 29 29 29 28
46 43 42 41 36 34 29 25 30 38 32 28 32 37 37 33 32 32 31 29 26 25 25 25 25 25 27 28 27 27 28 26 20 17 19 21 23 25 26 27 26 26 27 27 29 30 30 29 27 28 30 29 27 26 25 23 21 20 18 17 14 9 6 5 6 8 10 12 14 15 16 17 18 18 19 19 19 20 21 22 23 25 26 26 27 27 27 28 28 29 30 30 30 31 31 31 30
48 39 36 41 39 32 26 25 29 36 34 33 36 38 35 36 36 32 30 30 28 26 25 25 25 25 27 26 25 27 29 28 24 20 20 21 23 25 25 26 25 25 27 27 29 30 30 30 29 30 31 29 27 26 25 24 22 21 19 17 13 8 6 6 8 11 13 14 16 17 18 19 19 19 19 19 20 21 22 23 24 26 27 28 28 29 29 29 30 30 31 31 32 32 33 33 32
51 40 29 35 41 34 24 24 29 35 35 32 36 38 37 38 37 30 27 26 27 27 27 26 25 25 26 25 24 25 26 25 23 21 21 21 22 23 24 24 23 24 24 25 26 26 27 28 26 25 28 28 26 26 24 23 22 21 20 17 12 8 7 8 11 14 16 17 17 18 19 20 20 20 20 21 22 23 24 24 25 26 27 28 28 29 29 30 30 31 31 32 32 33 34 35 35
52 47 35 30 38 36 27 29 35 37 35 29 32 37 38 36 31 29 28 25 25 27 27 26 26 26 26 26 25 25 25 22 21 21 21 21 21 21 22 22 21 20 19 19 22 23 21 23 23 22 22 23 24 24 22 21 21 20 20 17 14 12 10 10 13 15 17 18 19 19 20 20 21 21 22 23 23 24 25 25 25 25 26 27 27 28 29 29 30 30 31 31 32 32 33 34 35
51 52 41 28 34 36 29 32 37 40 40 35 36 39 38 33 27 27 27 25 26 27 26 27 27 27 26 28 29 27 24 20 20 22 21 20 20 21 21 21 19 16 15 16 18 20 17 17 21 23 22 22 23 22 21 21 20 18 16 14 13 12 10 12 14 16 17 18 19 19 20 20 21 22 22 23 23 24 24 25 25 25 26 27 27 28 29 29 29 30 30 31 31 32 32 33 34
50 55 48 35 33 32 27 32 37 41 41 36 38 39 39 36 31 29 28 28 29 29 28 28 28 28 29 30 30 30 26 20 20 21 20 20 19 19 18 19 20 16 16 17 16 18 18 18 20 21 22 22 21 21 20 19 18 16 14 12 12 12 12 13 14 16 17 17 18 18 19 20 20 21 22 23 23 23 24 24 25 26 26 27 28 29 29 30 30 31 32 32 33 34 35 35 35
52 54 52 42 32 27 33 41 42 42 37 33 38 37 37 39 35 33 31 31 31 30 29 28 27 28 30 29 29 31 28 20 19 20 20 20 18 17 18 19 20 17 15 16 14 15 18 20 21 19 20 21 20 19 18 17 16 15 14 15 14 13 12 13 14 15 16 17 17 18 19 20 21 21 22 22 22 23 23 24 25 26 26 27 28 29 30 31 32 33 34 35 36 36 37 37 38
54 53 50 42 33 29 37 43 44 46 40 36 40 40 38 40 38 35 33 33 31 29 29 29 28 28 29 29 28 30 28 21 18 19 19 19 17 17 17 18 19 15 13 12 11 12 16 19 22 21 21 22 21 20 18 16 16 15 15 15 14 12 12 13 14 15 16 17 17 19 20 21 21 22 22 23 23 24 25 25 26 27 27 28 29 30 31 32 33 34 35 36 37 37 38 38 39
53 47 44 44 40 31 29 33 37 41 43 39 37 41 40 37 38 37 35 34 30 28 29 28 28 28 29 30 27 27 26 21 17 19 18 17 17 17 17 18 18 16 14 11 10 12 13 14 16 18 18 20 20 19 17 17 16 15 14 13 12 12 12 13 14 15 16 17 18 19 21 21 22 22 23 24 25 26 27 27 28 28 29 30 30 31 32 33 33 35 36 37 37 38 39 39 39
49 36 35 46 46 31 22 27 31 31 40 43 38 42 40 35 38 38 34 30 27 27 28 27 27 28 29 29 28 26 22 16 15 17 17 16 16 16 16 17 18 19 16 11 12 11 11 11 12 14 14 15 16 15 14 14 13 12 12 12 11 12 13 13 14 16 17 18 19 20 21 21 22 23 24 25 26 27 29 29 30 30 31 31 32 32 33 34 35 36 37 37 38 38 39 39 39
49 31 30 45 48 37 30 33 36 35 37 39 37 39 39 37 39 39 33 28 28 27 26 25 26 27 28 28 29 27 20 13 15 18 17 16 15 15 16 16 19 21 19 15 14 11 10 11 12 14 13 12 12 12 11 10 10 10 11 11 12 13 13 14 15 17 18 20 20 21 21 22 22 23 24 26 27 29 30 31 31 32 32 33 33 33 34 35 36 37 37 37 38 38 38 39 39
51 33 27 40 46 47 45 40 41 40 37 35 33 33 37 38 39 39 34 30 29 28 26 26 26 27 28 29 29 27 21 18 19 20 19 17 16 16 16 16 18 21 21 18 15 12 11 11 12 13 13 12 12 11 9 9 10 11 11 12 13 14 15 16 18 19 20 20 21 21 22 23 24 25 26 27 28 30 31 32 33 33 34 34 34 35 36 37 37 37 37 37 37 38 38 38 39
55 41 29 38 44 49 55 50 45 43 40 36 29 27 33 36 37 39 36 33 30 29 28 27 27 27 27 28 29 26 23 23 23 22 22 20 18 17 16 17 18 20 21 19 15 13 12 13 14 14 14 13 12 11 11 11 11 12 13 14 14 15 16 18 19 20 20 21 21 22 23 24 25 26 27 28 29 31 32 33 34 35 35 35 35 36 37 38 38 38 38 38 38 38 39 39 39
55 46 31 33 35 39 54 55 50 47 42 34 26 25 32 34 37 40 36 34 32 31 32 30 27 24 23 25 27 25 24 25 24 23 22 20 19 18 18 17 18 18 18 17 15 14 14 15 16 15 14 13 12 12 13 13 14 15 16 17 17 18 18 19 20 20 21 22 23 24 24 25 26 27 28 29 31 32 33 34 35 36 36 36 37 38 38 38 38 38 39 39 40 40 40 40 40
53 45 29 31 30 25 41 49 45 42 36 30 26 27 32 32 35 40 36 33 31 32 34 32 25 21 19 22 24 23 24 24 24 23 21 19 19 18 18 17 17 18 17 17 16 15 16 17 17 15 14 14 13 14 15 16 17 17 18 19 19 20 21 21 21 22 22 24 25 26 27 27 28 29 30 31 32 33 34 35 36 37 38 39 39 39 39 39 39 39 40 40 40 40 41 41 41
50 43 29 31 32 22 29 37 36 36 34 33 32 30 33 33 32 37 38 33 29 30 32 28 24 20 17 19 21 22 24 23 23 21 19 19 19 18 18 18 18 18 18 18 17 17 18 18 17 17 16 15 16 16 17 18 18 18 19 20 20 20 21 22 22 23 24 26 27 28 28 29 30 30 31 32 34 35 37 38 38 39 39 40 40 40 39 39 39 40 41 41 41 41 41 42 42
43 45 37 28 27 24 24 27 31 37 37 35 35 35 37 37 34 36 37 34 31 31 30 27 24 22 18 17 20 22 24 24 22 21 19 19 18 17 18 19 18 18 18 18 18 18 18 18 18 17 17 17 17 18 18 19 20 20 20 20 20 20 21 22 23 25 26 27 28 29 30 31 32 33 34 35 36 37 38 39 39 39 40 40 40 40 39 40 40 41 42 41 41 41 42 42 42
33 37 42 31 27 30 28 28 34 41 41 37 35 34 36 39 39 37 33 31 32 32 30 26 23 21 18 17 21 23 23 23 22 20 19 18 16 15 16 17 17 17 18 19 19 18 19 19 18 17 17 17 18 19 19 20 20 20 20 20 21 21 22 23 24 26 27 28 29 30 31 33 33 34 35 36 37 37 38 39 39 39 40 40 40 40 40 41 41 42 42 41 42 42 43 43 43
32 25 39 37 31 29 26 27 31 36 40 40 34 29 34 40 42 41 34 31 35 33 28 24 20 19 18 18 21 23 22 21 20 19 18 17 16 15 17 17 17 17 18 18 18 18 19 19 18 17 17 17 18 19 19 19 19 20 20 21 21 23 24 25 27 28 29 30 31 31 32 33 34 35 36 36 37 37 38 38 39 39 39 39 40 40 41 41 42 42 41 41 42 43 43 43 43
40 26 35 42 36 26 22 24 24 26 34 38 37 33 34 37 41 42 38 35 39 37 30 25 21 20 20 20 22 23 22 20 19 19 18 17 16 16 17 18 17 17 17 17 17 19 19 19 17 16 16 17 18 18 18 19 20 21 22 22 24 25 26 27 29 29 30 31 31 32 33 34 35 36 37 37 37 37 38 38 38 38 39 39 40 41 41 41 41 41 41 42 43 44 44 44 44
49 35 31 39 41 31 25 27 24 22 26 31 35 34 28 30 38 43 39 36 40 40 35 29 25 22 23 24 24 23 22 21 21 20 19 18 17 16 16 16 16 16 15 16 18 19 19 18 17 16 16 18 19 19 20 21 22 23 24 25 26 27 28 29 29 30 31 31 32 33 34 35 37 37 37 37 37 37 37 37 38 38 39 40 41 41 40 40 40 41 42 43 44 45 45 44 44
Wind_Direction
241 242 244 244 248 248 258 252 242 255 243 232 230 225 211 201 214 213 251 270 306 293 270 268 265 261 260 265 267 262 262 265 273 275 281 290 293 297 302 310 315 321 327 327 329 328 326 322 317 316 319 322 323 323 322 315 308 301 303 311 320 326 330 340 345 349 352 355 355 356 357 358 359 360 2 1 360 3 9 11 9 5 360 360 0 2 2 2 360 357 355 355 357 358 359 359 359
243 243 245 244 250 249 255 260 253 253 255 242 231 232 223 213 219 197 227 269 305 284 268 264 263 258 254 261 265 264 267 269 274 274 279 290 295 298 302 306 310 319 324 325 326 324 322 318 313 312 315 318 319 319 317 312 304 298 298 306 316 321 327 337 343 347 350 353 354 355 356 357 359 0 1 0 359 360 3 5 5 1 356 354 353 352 353 353 352 351 351 352 355 356 359 359 360
244 244 246 246 249 251 252 260 260 252 253 254 238 234 230 229 233 216 242 263 246 258 263 262 256 253 254 259 262 264 272 275 277 278 282 290 293 296 301 304 310 318 322 324 322 320 318 313 308 307 311 314 315 315 313 307 299 294 295 304 311 318 325 333 341 345 348 352 354 354 355 357 359 359 359 359 358 356 357 358 359 356 354 351 348 346 346 347 347 346 348 351 354 356 359 0 1
247 247 248 249 249 252 252 254 254 255 252 257 255 236 231 233 236 247 274 281 261 253 261 265 254 256 262 262 264 267 272 275 280 284 288 291 293 295 300 305 311 317 321 321 317 317 314 307 303 304 308 310 312 311 309 302 294 290 291 301 308 315 323 330 338 343 347 350 353 353 353 355 356 357 357 358 357 354 353 353 352 350 350 349 345 342 342 342 343 345 348 351 356 358 359 359 360
248 249 250 251 252 252 251 252 250 252 253 256 260 243 235 228 225 257 283 293 281 267 264 267 265 265 266 265 269 272 271 271 279 285 289 290 290 294 298 302 309 315 319 316 314 314 308 301 298 300 305 307 309 307 304 298 290 286 288 296 304 313 320 327 334 340 346 349 352 351 350 351 352 352 353 355 355 353 350 349 348 345 345 344 342 339 339 341 343 346 349 353 356 359 359 358 358
248 250 251 251 253 255 252 253 252 250 250 251 251 247 243 216 196 215 234 277 279 271 262 259 266 268 268 269 270 272 273 274 279 282 284 286 288 292 294 299 307 312 314 311 311 309 301 296 295 298 301 305 306 303 300 293 286 283 285 293 301 310 317 325 331 338 345 349 351 348 346 347 348 348 349 350 350 349 347 346 345 343 341 338 336 336 338 342 345 348 349 352 355 357 357 357 357
249 250 252 252 251 254 255 254 253 251 248 252 254 254 253 232 204 206 233 274 268 268 267 267 265 264 267 268 268 273 278 278 278 280 282 287 289 290 291 297 304 308 310 308 306 303 296 291 291 295 298 303 302 299 295 288 282 279 282 291 299 307 315 323 330 337 343 348 348 345 344 344 344 344 344 343 344 343 341 343 342 340 337 334 331 331 338 343 345 347 348 349 351 352 353 354 355
249 250 251 253 252 252 254 253 254 254 250 252 255 256 257 254 232 218 242 262 261 262 264 275 272 260 261 264 268 272 276 276 277 281 283 286 287 288 290 296 301 305 307 303 302 298 291 287 289 292 296 300 296 292 290 283 277 276 280 289 296 304 314 323 328 334 341 346 345 342 342 341 340 339 339 338 337 335 334 335 338 337 333 331 329 330 337 342 345 346 347 347 347 348 350 352 353
248 249 250 253 254 252 253 252 252 254 254 255 258 262 261 263 259 247 244 244 255 262 260 273 274 265 260 261 267 269 274 275 275 279 282 284 286 289 291 295 300 303 302 300 298 292 286 285 287 291 294 295 290 285 283 277 272 272 277 285 293 301 314 322 325 333 340 342 340 340 339 337 337 335 334 332 330 328 325 326 330 332 329 327 326 330 335 339 343 344 345 344 345 347 350 352 352
248 248 249 252 254 252 254 254 252 254 257 258 261 265 267 281 287 272 260 248 251 264 271 272 272 269 264 264 268 270 273 274 275 279 281 284 287 289 291 295 298 299 298 295 292 286 283 283 286 290 291 289 282 279 278 272 267 268 273 281 291 301 314 319 324 331 337 337 335 336 335 334 333 332 331 327 325 322 320 319 322 325 325 323 323 328 333 336 339 341 342 341 344 347 350 352 352
247 248 248 250 253 252 253 256 255 256 258 261 263 262 273 291 274 258 256 253 251 260 269 273 276 272 265 267 269 271 274 275 278 279 280 283 284 286 290 295 295 294 293 290 285 280 279 281 286 289 288 283 275 274 272 266 263 264 270 281 291 302 313 316 322 329 331 331 330 332 332 332 331 330 328 324 321 319 317 314 313 317 319 319 319 325 330 333 335 336 338 341 345 347 350 351 352
246 247 249 248 250 252 252 256 256 255 258 260 261 258 267 276 260 252 253 255 254 261 265 266 274 272 266 267 268 271 275 276 277 279 281 281 283 285 289 292 290 289 287 284 279 276 278 282 287 288 283 276 270 269 265 261 260 264 272 283 292 303 310 312 319 324 325 323 324 328 330 330 329 328 326 322 319 317 313 307 306 308 313 316 315 320 326 328 330 332 336 341 345 347 350 351 350
246 246 249 249 250 252 251 254 256 256 256 257 263 260 246 249 254 254 255 258 260 266 269 264 267 268 265 267 269 271 273 276 276 277 279 280 283 285 288 287 284 284 282 277 274 274 279 284 288 284 275 269 265 263 260 259 260 265 274 282 292 301 305 308 313 316 316 316 320 325 327 329 328 328 325 322 318 314 310 304 303 304 308 312 311 316 320 324 326 330 335 341 345 347 349 349 348
246 246 247 250 250 252 251 250 254 256 258 259 269 264 241 237 247 255 262 265 266 269 269 263 262 264 264 267 271 271 271 274 275 276 279 281 282 282 283 280 278 279 275 272 271 274 280 284 283 274 268 264 261 259 257 258 259 265 271 279 289 296 299 299 303 306 307 310 316 321 325 328 327 327 325 323 318 314 310 306 305 305 307 309 311 314 317 320 322 328 335 340 344 346 348 347 345
245 246 246 248 249 251 252 251 252 254 259 261 258 255 248 244 249 260 267 265 268 273 268 263 264 264 262 263 266 270 271 272 275 277 279 280 279 278 276 273 272 273 271 269 269 274 278 277 272 264 262 258 257 257 256 258 258 262 267 276 284 288 289 289 294 297 299 304 311 317 323 326 326 326 325 323 319 314 310 307 306 307 309 311 314 316 316 316 319 327 332 338 340 343 345 344 344
244 246 246 246 247 248 250 251 253 254 260 262 254 253 254 254 256 260 262 263 270 270 266 265 264 260 257 259 264 269 272 273 275 277 277 276 274 271 267 267 268 268 266 265 268 271 272 268 263 258 257 256 255 255 256 256 255 259 264 272 278 279 280 283 289 289 291 298 306 314 321 324 326 327 328 325 321 316 312 310 309 310 312 314 317 319 316 312 314 323 329 334 336 339 342 342 343
243 245 244 244 245 246 248 250 254 255 259 263 260 258 256 254 256 258 258 264 268 262 260 261 261 258 258 262 266 267 268 271 273 274 273 269 265 261 259 262 263 264 261 261 264 265 264 261 256 254 254 254 255 254 254 253 253 257 262 269 271 272 275 279 280 279 283 291 300 310 320 325 328 330 331 329 325 321 317 315 314 314 314 315 318 320 318 313 313 319 325 330 333 337 340 341 343
243 243 243 243 244 246 246 248 251 248 246 259 261 258 254 250 252 256 261 262 259 258 258 256 260 260 261 265 264 264 264 267 270 269 266 260 255 254 255 259 261 260 257 257 260 260 258 254 251 250 250 252 253 252 252 252 252 255 260 264 266 269 272 273 272 273 278 287 297 308 321 326 329 332 332 333 331 327 323 319 317 315 315 315 318 321 320 317 314 317 324 331 335 338 339 340 343
242 242 242 242 243 245 244 244 249 246 247 256 260 257 251 246 249 258 264 261 250 252 260 256 257 260 258 262 262 262 263 265 265 260 258 255 252 253 255 257 257 255 256 256 259 261 257 251 249 247 247 251 252 251 251 252 252 254 256 258 263 266 267 267 269 272 276 285 296 308 322 326 327 331 334 332 327 324 320 316 315 314 313 313 317 320 320 318 317 322 330 336 339 340 340 340 343
240 241 241 242 242 243 241 237 235 234 233 227 241 251 247 244 250 258 260 259 253 251 261 258 253 259 259 260 261 261 262 261 258 254 256 254 252 253 253 254 252 253 255 257 260 261 256 249 247 246 246 247 249 251 250 252 252 251 252 255 261 262 262 264 266 270 277 286 297 312 319 321 326 331 331 327 323 323 318 314 314 314 314 313 317 321 321 320 321 326 333 339 341 341 340 341 343
240 240 241 242 241 241 239 233 228 228 228 220 229 246 249 252 251 250 254 257 259 255 258 257 251 255 257 257 259 260 260 257 254 253 253 252 252 251 250 250 249 251 253 257 261 260 254 249 247 246 245 245 248 251 250 251 249 248 251 255 259 260 259 260 264 270 276 284 295 306 310 316 328 332 329 326 326 328 322 317 317 316 315 315 320 325 326 324 324 328 332 336 340 341 341 341 344
241 239 241 241 238 240 234 227 243 239 234 230 234 248 255 255 248 246 251 254 258 256 254 254 251 251 253 254 257 258 258 255 251 249 249 250 251 249 249 249 248 250 253 257 261 260 255 250 247 246 246 246 247 248 249 248 246 247 251 255 258 258 258 259 263 269 272 279 288 296 304 317 330 332 329 327 330 331 326 325 325 321 318 317 317 320 323 322 324 327 328 331 336 339 341 341 343
241 238 239 237 235 237 220 202 236 240 237 236 238 249 254 249 247 247 248 249 250 251 252 253 250 251 255 258 259 257 255 252 250 249 247 249 250 248 250 251 250 250 252 257 260 258 255 251 248 246 246 245 245 247 247 246 247 249 252 256 257 257 257 258 261 266 270 275 282 293 306 319 328 332 329 328 331 331 331 334 334 328 324 322 318 318 322 322 322 324 325 328 334 337 337 337 339
239 235 235 235 232 232 221 207 227 239 243 245 241 246 250 246 246 247 246 246 245 244 249 253 251 249 255 259 256 254 252 249 249 250 247 248 249 250 254 254 252 252 253 256 258 259 257 253 248 245 246 245 245 245 246 247 249 251 254 257 257 256 256 257 260 264 268 272 279 292 305 316 325 331 332 332 333 330 332 338 337 334 331 326 321 318 322 324 323 322 324 329 333 333 335 336 335
236 233 231 233 230 227 227 223 231 245 250 247 239 240 246 246 242 243 243 241 243 242 244 251 251 247 250 252 249 248 248 247 249 248 245 248 249 248 253 254 254 253 253 255 258 261 258 252 248 247 247 246 245 245 246 248 249 251 254 255 256 255 255 257 260 263 267 270 276 287 296 308 319 327 333 336 337 333 331 337 340 340 335 328 317 315 323 325 323 322 324 330 332 331 333 335 334
234 231 228 230 231 225 227 231 236 247 246 234 236 239 243 243 238 238 239 236 239 241 241 246 247 245 245 246 245 243 244 246 246 245 247 248 242 238 245 248 250 252 254 259 261 259 256 253 252 250 248 247 246 247 247 247 248 249 251 254 255 254 255 256 258 261 265 269 274 281 290 304 316 325 332 334 338 340 338 340 342 342 338 330 319 322 329 324 320 322 325 330 332 330 331 332 331
232 230 228 227 230 226 226 232 238 243 240 234 238 240 239 238 236 235 235 234 236 239 240 244 246 241 238 243 244 243 245 243 240 242 245 241 231 228 239 245 250 255 259 262 260 258 258 257 255 252 250 248 248 248 247 246 245 247 249 252 254 254 255 257 259 261 263 268 273 278 287 303 316 323 327 332 336 341 345 343 341 343 338 331 330 333 332 324 322 324 327 331 332 331 329 328 328
229 228 227 224 226 229 229 234 238 240 239 236 237 239 236 235 235 233 234 233 235 240 241 247 253 243 234 236 239 243 246 243 243 243 236 231 230 236 246 248 251 254 254 257 258 259 259 258 255 252 250 248 248 247 245 244 244 246 249 252 253 255 256 257 260 262 263 267 271 275 283 298 310 315 319 326 332 338 344 343 341 344 340 335 337 336 328 327 330 328 331 334 332 331 328 326 326
227 227 227 224 226 230 232 232 235 238 239 238 238 238 235 235 236 235 235 234 236 242 242 244 253 249 238 236 239 243 244 246 249 239 228 236 246 250 253 252 252 251 250 254 258 260 259 256 253 249 247 245 245 245 245 244 242 243 248 251 253 253 255 256 258 260 263 265 269 275 280 291 302 307 310 316 325 333 336 338 338 339 338 336 334 334 332 331 334 333 335 335 332 332 330 329 328
224 227 227 225 226 231 233 232 234 238 239 239 238 238 237 237 238 238 236 236 238 243 244 243 246 249 244 238 237 239 240 241 236 228 232 244 246 249 255 254 255 254 255 257 257 256 255 253 250 248 246 245 245 245 247 247 244 241 243 248 250 249 250 251 254 256 258 261 264 269 275 284 294 300 302 305 312 320 324 328 330 330 332 331 328 334 336 333 333 334 334 332 332 332 330 330 329
222 226 227 225 226 231 233 232 233 236 238 239 238 236 238 239 239 238 236 236 238 241 245 244 245 249 244 234 232 235 237 233 226 227 234 240 241 245 248 249 253 255 259 262 262 259 254 252 251 253 255 256 255 253 253 254 250 246 243 243 242 242 243 244 248 252 253 256 258 262 269 277 287 293 295 296 299 305 310 314 317 320 324 325 325 331 333 331 332 332 331 329 330 331 329 328 328
222 224 226 226 226 230 233 233 233 236 237 238 239 237 238 239 239 236 234 235 238 241 246 247 249 254 249 241 240 241 238 233 232 235 233 231 236 238 241 244 248 251 257 264 268 264 257 255 256 259 260 256 254 254 254 254 252 254 250 239 234 234 236 238 241 245 247 251 256 261 268 276 284 290 291 290 291 296 301 303 307 311 314 317 319 322 325 326 327 328 327 327 327 327 326 326 326
221 222 224 225 226 228 233 235 233 234 238 238 237 240 242 241 240 238 234 236 240 242 247 251 252 255 251 244 243 239 235 233 236 237 231 230 237 242 248 251 252 256 265 273 273 264 257 257 257 257 254 250 250 249 248 251 251 255 256 245 235 230 230 236 239 239 245 251 257 263 271 278 284 287 289 288 289 293 297 299 302 305 308 310 312 315 319 320 320 321 321 321 322 321 321 322 322
220 221 221 224 226 226 229 238 237 230 234 239 235 238 246 242 238 238 235 236 241 243 246 252 252 249 245 240 237 231 228 229 232 236 234 235 242 247 254 258 259 261 268 276 274 264 258 257 255 255 255 254 254 253 251 252 252 253 253 251 249 237 228 233 237 240 248 255 260 266 273 280 284 287 289 289 290 293 295 298 300 303 305 306 307 310 313 314 314 315 316 316 317 316 316 317 318
220 220 220 222 224 224 222 230 241 234 228 238 237 235 242 240 236 239 240 238 241 244 244 248 248 245 244 242 237 232 226 223 228 239 249 247 245 245 252 258 258 258 262 266 265 262 260 258 256 256 257 257 255 256 255 252 253 254 249 246 245 235 228 235 242 248 253 257 263 269 276 280 285 287 288 290 291 292 295 297 299 301 302 303 304 305 307 309 309 309 311 311 311 311 310 311 311
221 222 221 222 224 226 221 216 240 241 226 230 238 240 241 238 237 241 243 242 242 242 242 245 245 241 240 239 239 238 235 229 234 253 264 254 248 246 249 254 255 259 263 262 257 256 258 258 256 255 256 256 253 254 254 254 255 250 239 236 235 224 228 242 249 254 257 263 268 271 276 280 284 287 288 289 290 292 295 296 298 299 300 302 303 304 304 304 304 304 305 305 305 305 304 304 305
219 223 222 222 223 226 220 210 235 242 230 228 238 245 245 241 239 242 241 240 240 241 241 244 245 242 239 238 240 239 235 236 246 258 260 255 251 248 249 254 258 265 269 262 252 251 256 257 252 251 253 252 251 252 252 253 251 239 228 232 233 219 222 241 252 266 269 269 271 271 275 280 284 289 289 291 292 293 295 296 298 299 299 300 301 301 301 300 301 300 301 301 301 302 301 302 302
215 221 223 221 220 224 219 210 233 244 241 239 239 243 247 246 243 242 240 238 236 239 240 242 244 243 241 241 241 232 227 231 234 244 255 256 253 252 255 259 262 269 273 263 250 249 256 257 253 251 253 251 248 249 249 247 241 231 228 233 233 221 218 248 273 279 279 278 278 278 280 283 287 289 291 293 295 296 297 298 299 299 299 299 299 300 300 300 301 301 302 302 302 302 302 302 302
210 212 221 223 216 216 217 211 229 244 243 240 241 243 248 249 246 243 241 238 235 237 238 239 240 239 239 240 235 227 228 230 228 239 254 256 255 255 259 264 267 271 272 264 253 252 256 258 258 253 250 247 245 246 248 245 237 233 234 232 229 230 240 269 284 281 285 286 285 285 286 287 288 290 293 295 297 298 300 301 301 301 301 301 302 302 302 302 303 303 304 305 305 304 303 303 303
210 204 209 224 218 208 210 211 220 237 240 236 240 243 244 246 246 243 243 240 237 238 237 237 237 236 235 233 227 227 233 232 230 241 252 257 260 259 262 267 273 276 270 261 253 254 261 260 256 249 242 241 241 243 245 241 237 239 237 228 228 248 264 276 283 283 285 286 286 287 287 288 289 292 295 298 300 302 302 303 303 303 303 303 304 303 304 304 304 305 306 306 307 307 307 306 305
211 206 199 215 218 204 199 209 214 228 236 233 233 238 240 242 243 244 244 244 243 241 239 239 239 236 232 231 234 237 238 234 233 242 250 257 262 262 264 267 276 282 269 258 253 254 264 259 248 244 238 235 237 238 236 233 235 238 234 235 249 265 274 282 285 285 287 288 289 290 290 292 294 296 299 300 301 302 302 303 303 303 303 303 304 305 306 307 307 308 308 308 308 308 308 308 307
210 210 200 202 212 200 197 212 214 222 231 232 232 235 238 237 234 239 244 247 247 244 242 241 239 237 233 234 241 242 238 235 236 243 250 256 259 261 265 268 275 277 258 253 257 252 257 257 248 245 238 235 239 236 230 230 234 235 235 248 268 274 281 289 289 290 291 291 292 292 293 296 297 298 299 299 300 300 301 302 303 304 304 305 307 308 309 309 310 309 309 310 309 309 309 308 308
208 211 204 200 200 194 204 217 217 222 226 231 237 238 240 239 237 239 245 248 249 248 243 238 236 236 236 235 239 243 240 234 234 242 249 253 258 260 263 268 271 270 255 253 261 255 254 258 252 246 239 235 236 233 231 234 236 238 246 263 282 286 288 290 290 290 289 289 289 290 293 295 296 297 298 299 300 301 303 305 306 307 308 310 311 311 312 312 312 312 311 311 311 311 310 310 310
208 210 208 203 191 191 215 221 223 228 225 228 236 239 241 243 242 242 245 247 247 250 245 240 239 239 241 241 243 247 242 230 231 241 250 254 259 261 261 267 269 265 250 245 254 257 257 256 252 247 240 233 232 233 231 231 234 244 261 276 287 290 287 285 285 286 286 289 290 292 294 296 297 298 299 300 302 304 306 307 308 309 311 312 312 312 313 313 312 312 312 312 312 312 311 311 311
208 209 205 199 187 199 220 224 228 233 229 229 236 239 241 244 244 242 243 244 243 246 246 244 244 241 242 245 248 251 242 228 229 239 247 254 259 261 262 267 266 249 226 229 247 258 257 254 250 248 243 238 238 239 236 241 252 266 278 284 289 290 287 286 287 289 291 292 294 296 297 298 299 300 301 303 304 305 307 308 309 311 311 312 312 313 313 313 313 312 312 311 311 311 311 311 310
207 207 203 197 192 199 213 221 229 234 232 231 234 238 240 243 246 242 239 242 244 245 244 242 242 239 239 242 246 248 240 224 223 236 246 253 258 262 263 264 257 234 216 234 264 266 259 251 248 251 249 245 244 245 248 258 268 276 281 282 285 285 286 289 290 290 291 293 294 296 297 298 300 301 303 304 306 307 308 310 311 311 312 312 313 313 313 314 313 312 312 311 310 310 310 310 310
200 197 203 201 197 198 202 213 222 229 231 229 231 238 239 241 247 246 242 243 244 243 243 242 242 242 239 240 240 238 234 221 220 237 247 252 258 260 259 257 248 232 223 247 277 275 261 250 248 251 249 246 248 253 259 265 269 271 273 276 278 280 283 285 287 288 290 291 293 294 296 299 301 302 304 306 307 309 309 311 311 311 311 311 312 313 313 313 312 312 311 310 310 310 310 310 310
195 187 202 204 201 202 201 203 210 219 227 226 228 236 238 239 245 249 248 246 244 242 246 248 246 245 240 237 237 235 235 234 234 241 245 250 256 255 253 251 244 236 233 254 278 273 256 252 251 248 246 250 254 258 263 265 268 272 277 280 281 283 284 285 287 288 289 291 292 295 298 300 302 304 305 306 307 308 309 310 310 310 310 310 311 311 312 312 312 311 310 310 309 309 309 309 309
193 188 201 205 204 207 207 207 211 219 227 226 224 232 238 239 244 248 247 245 245 245 250 251 245 244 242 236 234 237 243 247 245 246 246 248 253 252 251 249 247 244 246 260 273 264 250 249 249 247 249 255 260 263 268 271 274 277 279 281 282 283 285 286 287 287 289 292 294 297 300 301 303 304 305 306 306 306 307 308 308 309 309 309 309 310 311 311 311 310 310 309 309 309 309 309 309
193 191 198 205 206 210 212 213 216 221 227 228 224 229 235 237 242 245 245 242 245 246 246 246 245 245 244 239 236 238 244 247 246 247 249 251 253 253 252 251 250 248 249 257 261 254 248 246 247 249 250 253 261 268 273 275 277 278 278 279 280 281 283 284 286 288 290 293 296 298 300 300 301 302 303 304 304 305 305 306 307 307 308 308 308 309 310 310 310 310 310 310 310 310 310 310 311
194 193 196 204 204 212 216 215 219 223 226 227 222 226 231 234 239 242 243 242 242 245 245 244 246 247 244 239 238 237 240 244 244 245 248 251 251 251 251 251 247 239 240 247 249 247 246 245 248 251 253 256 263 269 272 274 275 276 277 278 279 279 279 281 283 287 290 294 296 297 297 298 299 300 301 301 302 303 304 305 305 306 306 307 307 308 309 309 309 310 311 311 311 311 312 312 312
194 192 196 203 196 209 218 215 220 224 223 220 217 224 229 231 235 238 240 242 240 242 244 244 245 246 243 239 236 236 239 240 242 244 246 247 247 249 250 247 238 229 232 239 239 239 242 244 248 250 253 258 261 265 269 272 274 275 275 275 276 277 279 281 284 288 291 293 295 295 296 297 297 298 299 300 301 302 303 303 304 304 305 305 306 307 308 308 309 310 311 311 311 311 312 312 312
194 194 197 203 195 202 217 213 217 219 216 217 219 224 230 231 235 237 238 241 239 239 241 243 244 243 242 239 234 235 237 238 240 242 243 243 244 248 249 243 231 225 230 235 234 236 241 243 246 249 253 257 261 265 268 271 272 273 274 274 276 279 281 284 287 290 292 293 294 295 296 297 298 299 299 300 300 300 301 301 301 302 303 304 305 306 307 307 308 309 310 310 310 311 312 312 312
197 203 197 193 193 200 213 214 217 219 217 222 227 231 234 235 237 240 241 241 238 239 241 241 243 245 241 233 229 231 233 235 237 238 239 241 244 249 245 232 222 222 228 232 234 238 242 245 247 250 254 258 263 267 270 272 273 274 276 278 280 282 284 286 288 290 291 292 294 295 297 298 299 299 299 299 299 299 299 299 300 301 301 303 304 305 306 307 308 309 309 309 310 311 312 312 312
193 209 201 191 193 201 211 215 217 222 223 223 228 232 234 236 237 237 240 244 242 241 242 240 241 242 237 226 225 228 230 233 235 236 239 241 243 243 233 221 218 223 227 231 235 239 244 247 249 252 257 262 266 269 271 274 276 278 281 282 284 285 286 287 289 290 291 293 294 296 297 297 297 298 298 298 299 299 299 299 299 300 301 302 303 304 305 306 307 308 308 309 310 311 312 312 311
186 209 207 199 196 200 212 220 217 221 224 224 223 227 234 237 239 237 237 245 248 246 245 243 240 236 230 224 225 227 230 233 235 237 239 240 237 232 228 227 228 227 226 229 234 239 244 246 249 254 260 264 267 269 272 274 278 281 282 283 285 286 288 289 290 291 292 293 295 296 296 297 297 298 298 299 299 299 299 299 299 299 300 300 302 304 305 306 307 307 308 309 310 311 311 311 311
185 196 208 204 199 196 207 221 221 217 221 225 222 225 235 239 239 239 238 243 249 251 249 246 242 238 235 231 228 228 230 231 233 235 235 233 228 226 230 232 230 226 225 229 233 239 244 247 250 254 256 259 262 266 270 273 276 279 280 282 284 286 288 290 291 292 294 295 296 296 297 297 297 297 298 299 299 299 299 298 298 298 299 300 302 304 305 305 306 307 308 309 310 311 311 311 310
193 191 196 200 202 197 198 213 220 215 217 223 221 222 235 240 240 242 240 240 245 249 249 246 244 245 243 238 231 228 229 229 229 231 230 227 221 221 226 226 224 223 223 228 234 240 246 250 253 253 251 253 258 263 267 271 275 277 279 281 284 286 288 290 292 294 296 297 297 297 297 296 295 296 296 297 298 299 298 298 297 298 298 300 303 304 304 304 306 307 308 309 310 310 310 310 309